[[{"header":{"parameterUnit":"m.s-1","parameterCategory":1,"la1":30.2992,"la2":30.254,"lo1":-89.0895,"lo2":-89.0443,"dy":0.0025,"dx":0.0025,"nx":19,"ny":19,"refTime":"2026-03-16T21:00:00:Z","depth":0,"parameterNumber":2,"parameterNumberName":"U-component_of_WINDS"},"data":[0,0,0,0.6199,0.62,0.6264,0.6264,0.6342,0.6343,0,0,0,0,0,0,0,0,0,0,0,0.6176,0.6176,0.6198,0.62,0.6264,0.6264,0.6342,0.6343,0,0,0,0,0,0,0,0,0,0,0,0.6175,0.6176,0.6176,0.62,0.6264,0.6264,0.6342,0.6295,0,0,0,0,0,0,0,0,0,0,0.6234,0.6208,0.6176,0.6176,0.6201,0.6264,0.6264,0.6293,0.6298,0.6311,0,0.632,0,0.6333,0.6348,0.6348,0,0,0,0.6203,0.6204,0.6225,0.6176,0.6201,0.6264,0.6236,0.6296,0.6302,0.6318,0.6321,0.6324,0.6334,0.6348,0.6349,0.6409,0.6409,0,0,0.62,0.6185,0.6221,0.6228,0.6216,0.6234,0.6238,0.63,0.6303,0.6321,0.6326,0.6335,0.6349,0.6349,0.6409,0.6409,0,0,0,0.6187,0.6182,0.6202,0.6225,0.6237,0.6236,0.624,0.63,0.6308,0.6327,0.6336,0.6349,0.635,0.6408,0.6409,0.64,0,0,0,0.6185,0.6175,0.62,0.6192,0.6236,0.6269,0.6239,0.6303,0.6311,0.6336,0.6349,0.6351,0.6408,0.6409,0.64,0.6399,0,0,0,0.6173,0.6174,0.6182,0.6191,0.6218,0.6268,0.6279,0.6305,0.6316,0.6348,0.6351,0.6408,0.6408,0.64,0.6399,0.6411,0,0,0,0.6155,0.6173,0.6181,0.6205,0.6217,0.6262,0.6279,0.6314,0.634,0.6349,0.6408,0.6409,0.64,0.6399,0.6411,0.6418,0.642,0,0,0.617,0.6174,0.6189,0.6199,0.6238,0.6254,0.6293,0.6331,0.6348,0.6388,0.639,0.64,0.6399,0.6411,0.6434,0.6435,0,0,0,0.6189,0.62,0.6213,0.6237,0.6267,0.6293,0.6327,0.6341,0.6376,0.6365,0.6408,0.6408,0.6416,0.642,0.6421,0.6429,0.641,0.641,0.641,0.6188,0.6208,0.6235,0.6264,0.6288,0.6323,0.6345,0.6371,0.6385,0.6395,0.6407,0.6418,0.6423,0.6424,0.6432,0.6413,0.6413,0.6413,0.6412,0.6211,0.6229,0.6249,0.6281,0.6304,0.6333,0.6369,0.6378,0.641,0.6411,0.6419,0.6418,0.6424,0.6433,0.6412,0.6412,0.6412,0.6412,0.6412,0.6212,0.6225,0.6242,0.628,0.6308,0.6337,0.6367,0.6387,0.6406,0.6413,0.6429,0.6429,0.6432,0.6419,0.6419,0.642,0.642,0.642,0.642,0.6206,0.6226,0.6247,0.6282,0.6301,0.6329,0.6366,0.6386,0.6414,0.6426,0.6426,0.644,0.6421,0.6416,0.642,0.642,0.642,0.642,0.642,0.6221,0.6222,0.6254,0.6274,0.6317,0.6344,0.6369,0.6409,0.6428,0.6443,0.6456,0.6438,0.6444,0.6444,0.644,0.645,0.645,0.645,0.645,0.6222,0.6228,0.6267,0.6297,0.6328,0.6355,0.6395,0.6425,0.6457,0.6471,0.6473,0.6469,0.6468,0.6475,0.6474,0.647,0.6489,0.6489,0.6489,0.6234,0.6243,0.6271,0.6302,0.6337,0.6368,0.6406,0.6442,0.6478,0.6491,0.6483,0.6481,0.6476,0.6473,0.6484,0.6481,0.6475,0,0]},{"header":{"parameterUnit":"m.s-1","parameterCategory":1,"la1":30.2992,"la2":30.254,"lo1":-89.0895,"lo2":-89.0443,"dy":0.0025,"dx":0.0025,"nx":19,"ny":19,"refTime":"2026-03-16T21:00:00:Z","depth":0,"parameterNumber":3,"parameterNumberName":"V-component_of_WINDS"},"data":[0,0,0,-4.5497,-4.5499,-4.5577,-4.5577,-4.5672,-4.5673,0,0,0,0,0,0,0,0,0,0,0,-4.5472,-4.5473,-4.5497,-4.5499,-4.5577,-4.5578,-4.5672,-4.5673,0,0,0,0,0,0,0,0,0,0,0,-4.5472,-4.5473,-4.5474,-4.5499,-4.5577,-4.5578,-4.5672,-4.5614,0,0,0,0,0,0,0,0,0,0,-4.5539,-4.5515,-4.5473,-4.5474,-4.55,-4.5577,-4.5578,-4.5611,-4.5618,-4.5635,0,-4.5651,0,-4.5664,-4.5679,-4.5679,0,0,0,-4.55,-4.5509,-4.5532,-4.5474,-4.5501,-4.5577,-4.5542,-4.5615,-4.5622,-4.5643,-4.5652,-4.5656,-4.5665,-4.5679,-4.568,-4.5781,-4.5782,0,0,-4.5495,-4.5485,-4.5528,-4.5537,-4.5527,-4.554,-4.5545,-4.5619,-4.5628,-4.5653,-4.5658,-4.5667,-4.568,-4.5681,-4.5781,-4.5781,0,0,0,-4.5483,-4.5482,-4.5503,-4.5533,-4.5548,-4.5542,-4.5548,-4.5625,-4.5633,-4.5659,-4.5668,-4.5681,-4.5682,-4.578,-4.5781,-4.5794,0,0,0,-4.548,-4.5474,-4.5501,-4.5495,-4.5546,-4.5587,-4.5551,-4.5627,-4.5636,-4.5667,-4.5681,-4.5683,-4.578,-4.5781,-4.5792,-4.5801,0,0,0,-4.5468,-4.5473,-4.5484,-4.5495,-4.5528,-4.5586,-4.5599,-4.5629,-4.5641,-4.5679,-4.5683,-4.578,-4.5781,-4.5791,-4.5799,-4.5825,0,0,0,-4.5451,-4.5492,-4.5484,-4.5533,-4.5528,-4.5595,-4.5598,-4.5648,-4.5682,-4.5681,-4.578,-4.5781,-4.5791,-4.5798,-4.5824,-4.5845,-4.5854,0,0,-4.5497,-4.5497,-4.5527,-4.5522,-4.5588,-4.5583,-4.5651,-4.5691,-4.5703,-4.5754,-4.5757,-4.5793,-4.5799,-4.5825,-4.5904,-4.591,0,0,0,-4.5538,-4.5559,-4.5579,-4.5613,-4.5646,-4.5675,-4.5707,-4.5722,-4.5767,-4.5728,-4.581,-4.5814,-4.5829,-4.584,-4.5846,-4.586,-4.5786,-4.5786,-4.5785,-4.5586,-4.5602,-4.5653,-4.5679,-4.5711,-4.5745,-4.5772,-4.5798,-4.5802,-4.5822,-4.5836,-4.5883,-4.5895,-4.5899,-4.5914,-4.585,-4.585,-4.585,-4.585,-4.5654,-4.5687,-4.5696,-4.5748,-4.5765,-4.5808,-4.5842,-4.5845,-4.5887,-4.5872,-4.5887,-4.5869,-4.5906,-4.5919,-4.5851,-4.5851,-4.585,-4.585,-4.585,-4.5687,-4.5706,-4.5726,-4.5778,-4.5815,-4.584,-4.5881,-4.5894,-4.5906,-4.5921,-4.5938,-4.5938,-4.5939,-4.5928,-4.5929,-4.5929,-4.5929,-4.5929,-4.5929,-4.5713,-4.5735,-4.577,-4.5811,-4.5835,-4.5869,-4.5905,-4.5928,-4.5958,-4.5964,-4.5964,-4.5966,-4.5907,-4.5891,-4.5932,-4.5931,-4.5931,-4.5931,-4.5931,-4.5775,-4.5764,-4.5817,-4.5842,-4.5892,-4.593,-4.5947,-4.5995,-4.6016,-4.6036,-4.6037,-4.5991,-4.5991,-4.5987,-4.5974,-4.6033,-4.6033,-4.6033,-4.6033,-4.5802,-4.5805,-4.5864,-4.5903,-4.5942,-4.5964,-4.6023,-4.6052,-4.6079,-4.6094,-4.6087,-4.6072,-4.6067,-4.607,-4.6064,-4.6052,-4.613,-4.613,-4.613,-4.5842,-4.5849,-4.5897,-4.5927,-4.5968,-4.6003,-4.6059,-4.6103,-4.6131,-4.6135,-4.6105,-4.6101,-4.6076,-4.6067,-4.6068,-4.6059,-4.6037,0,0]}]]